Погода в Татарских Юнках

Россия / Республика Мордовия     54°11′05″N   43°20′33″E
темп.,
°C
ветер,
м/с
пор.,
м/с
влажн.,
%
обл.,
%
осадки,
мм/ч
давл.,
гПа
погр.,
м
24 января, пн
пн2400:00−11всв3796100 0.0 103395
03:00−11всв3897100 0.0 1034114
06:00−11св489792 0.0 1034133
09:00−11всв499666 0.0 1034145
12:00−8всв479488 0.1 1034252
15:00−8всв379410 0.1 1034222
18:00−13всв369613 0.0 103472
21:00−15в369619 0.0 103465
25 января, вт
вт2500:00−15юв369610 0.0 103266
03:00−17вюв22977 0.0 103123
06:00−18юв239711 0.0 103038
09:00−17юв369535 0.0 102980
12:00−11ююв379084 0.0 1027191
15:00−11ююв25947 0.0 1024136
18:00−15ююв359864 0.0 102357
21:00−12ююв379689 0.0 1021162
26 января, ср
ср2600:00−10ю389669 0.3 1019221
03:00−10ю379690 0.4 1018214
06:00−11ю3696100 0.2 1017146
09:00−10ююз3796100 0.4 1017240
12:00−8юз3591100 0.1 1017381
15:00−7юз3592100 0.2 1017475
18:00−11юз249791 0.0 101852
21:00−13ююз369895 0.0 101893
27 января, чт
чт2700:00−13ююз3897100 0.1 1019169
03:00−12ююз389684 0.1 1019192
06:00−14ююз379795 0.1 1019134
09:00−14ююз379784 0.1 1020164
12:00−11юз369499 0.0 1019253
15:00−10ююз359599 0.1 1019290
18:00−13ю369869 0.1 101990
21:00−15ю379979 0.1 1019101
28 января, пт
пт2800:00−16ю389761 0.0 1018107
03:00−14ю399877 0.0 1017152
06:00−12ю399774 0.1 1016180
09:00−11ю4119680 0.1 1016257
12:00−7ю6139499 0.1 1014484
15:00−7ююв6139398 0.1 1013494
18:00−8ююв61493100 0.0 1011425
21:00−7ююв61492100 0.0 1010491